RH
18 24 22 17 16 15 12 11 11 9 9 10 13 14 11 9 10 12 13 13 13 14 14 16 24 34 43 44 61 80 88 97 100 98 97 99 98 97 94 84 85 85 77 64
14 22 14 13 13 14 15 16 14 10 10 11 14 14 12 10 11 11 11 13 13 13 16 18 22 43 53 52 66 78 85 98 99 98 98 100 97 94 91 88 83 75 55 19
15 12 12 13 13 15 16 19 16 14 12 11 13 15 14 11 12 12 12 12 13 13 13 16 20 47 60 62 71 75 83 96 99 99 100 99 94 87 82 81 76 47 19 13
11 10 9 13 16 12 17 14 15 16 15 19 12 18 12 10 10 10 10 11 12 13 13 14 18 35 59 64 72 94 92 96 99 100 100 92 94 82 75 71 59 30 19 21
17 11 12 12 12 12 14 12 15 14 15 18 19 19 13 9 11 11 10 12 14 14 14 14 17 28 52 63 74 100 98 96 98 99 99 98 89 76 65 57 56 46 33 39
16 14 10 11 11 11 14 17 18 16 18 29 22 17 14 11 10 10 10 10 10 14 16 16 17 23 45 62 78 91 99 97 99 98 99 92 77 64 60 58 58 62 63 44
25 22 17 11 14 12 16 23 30 31 32 32 16 15 14 9 8 8 8 11 12 12 15 18 21 26 44 62 81 98 100 99 100 100 98 88 71 65 56 57 55 57 55 57
37 40 28 19 14 17 16 22 38 43 31 22 14 19 14 8 7 6 9 12 13 12 15 20 24 28 43 61 83 100 99 100 99 100 96 85 74 59 50 50 50 49 51 54
31 30 18 18 13 14 20 23 19 31 28 30 19 13 9 7 9 11 12 13 14 15 14 19 26 31 42 66 86 99 100 99 95 96 99 87 60 44 50 49 52 51 51 48
30 35 19 18 17 15 19 17 31 34 52 41 19 14 11 9 8 12 13 12 15 15 16 20 28 34 48 70 87 100 99 97 99 100 93 64 42 53 55 43 50 37 14 13
26 36 33 23 22 20 20 28 24 26 39 45 33 20 11 9 8 8 14 13 16 16 17 24 34 40 55 73 86 92 90 89 87 90 50 36 52 55 38 42 33 16 12 11
28 34 43 35 23 18 18 25 28 51 48 41 41 31 12 10 9 12 14 13 17 19 20 29 40 48 58 74 78 80 73 82 79 57 30 33 47 37 45 30 18 12 12 9
29 40 58 47 32 26 27 23 24 28 38 42 56 38 17 14 12 12 13 15 26 24 27 36 44 52 65 68 69 70 64 62 53 30 33 39 41 47 40 39 19 12 10 10
55 44 46 60 42 31 40 33 26 29 48 41 36 29 21 16 17 15 21 24 32 32 32 40 45 55 64 65 64 63 57 52 38 38 42 46 53 58 38 20 16 11 11 8
62 62 45 34 31 27 28 32 31 31 30 42 35 26 20 15 15 18 24 31 33 35 37 42 46 54 61 63 62 62 56 48 47 47 52 57 61 52 24 17 12 14 9 10
43 88 61 59 32 28 32 28 28 32 27 27 26 28 20 17 15 14 13 22 30 37 40 42 46 51 57 59 59 59 55 49 46 49 52 62 58 29 19 14 20 17 13 17
70 76 98 94 45 36 48 33 29 32 34 33 37 28 21 22 19 18 16 17 28 31 35 39 43 48 54 56 58 56 52 47 46 48 57 69 35 22 16 26 32 20 19 25
97 98 97 96 87 85 40 27 27 30 25 22 21 22 20 19 18 18 18 18 26 28 31 35 41 46 51 54 55 52 47 46 47 52 62 55 28 19 33 42 32 24 32 65
39 88 99 94 94 69 36 30 31 30 30 22 22 20 17 16 18 20 20 19 20 27 29 31 38 45 50 52 52 47 46 48 52 56 61 41 23 42 55 49 23 26 53 54
40 71 92 94 95 92 49 28 20 25 42 24 24 25 24 22 30 21 18 20 20 24 28 30 37 44 49 51 48 45 49 52 54 61 48 26 34 61 56 32 40 29 39 43
60 86 94 97 96 75 38 39 24 47 53 28 28 27 30 32 28 26 22 20 20 22 29 32 36 44 49 49 46 49 55 57 60 54 29 36 68 60 39 26 31 39 41 47
56 69 79 82 89 88 32 36 66 32 26 29 37 39 33 42 41 35 36 34 27 27 31 34 41 47 48 46 51 58 62 62 54 44 49 62 55 36 26 33 38 52 47 34
63 52 63 64 52 37 41 41 41 41 35 39 40 45 45 45 45 42 42 40 39 37 38 41 46 47 48 54 60 69 75 71 53 45 61 52 36 40 35 43 50 37 41 24
38 42 82 90 74 57 43 43 44 48 43 40 45 44 46 46 44 42 41 40 40 41 43 45 48 54 60 64 70 66 77 62 57 62 47 41 47 36 39 45 21 14 18 20
42 46 55 68 68 68 46 54 48 41 47 42 41 47 42 46 43 41 40 42 44 45 48 50 52 60 64 68 65 71 60 66 64 67 53 64 60 33 28 16 16 18 21 22
44 47 60 60 50 66 61 44 44 48 45 45 39 44 46 42 46 45 44 45 48 51 55 64 72 76 72 70 69 72 80 70 79 70 75 53 30 16 14 16 20 22 24 27
Wind_Speed
24 16 24 25 23 25 24 24 24 18 18 22 19 20 21 22 18 21 21 21 22 23 26 28 29 25 26 26 27 27 26 27 31 28 29 27 22 19 16 16 14 13 12 10
21 27 29 24 24 25 26 27 26 22 20 18 18 23 19 19 22 26 27 25 26 25 25 28 26 29 28 28 29 29 28 32 35 33 27 22 20 18 16 16 16 15 13 11
30 35 26 25 26 27 26 28 22 25 20 24 22 28 24 21 26 30 35 30 30 29 29 29 32 30 30 30 31 32 30 35 36 36 26 25 25 20 18 17 17 16 14 12
31 34 31 26 31 28 28 26 24 26 21 23 18 24 25 24 25 28 35 37 31 35 31 30 32 33 33 33 30 34 34 35 32 32 32 32 27 23 20 18 16 17 13 11
28 34 29 31 30 26 31 21 25 25 23 21 30 18 19 22 24 23 24 26 31 31 31 31 33 36 35 33 33 30 37 36 35 33 31 31 23 20 20 18 19 15 13 10
19 37 30 29 31 27 24 23 17 19 16 17 31 20 29 22 26 23 26 33 32 29 30 31 31 34 35 35 34 32 38 39 37 36 32 29 27 25 23 21 18 15 12 10
29 33 33 29 26 26 25 22 16 17 16 22 23 19 34 2 11 17 18 24 27 26 27 29 29 33 35 36 37 36 39 43 41 36 32 30 29 26 24 22 18 17 14 11
25 25 34 29 37 28 29 27 14 21 20 21 25 26 34 25 26 26 18 11 18 25 25 27 28 32 35 35 37 33 37 37 40 41 37 37 34 28 23 20 18 15 12 11
23 36 24 32 32 27 26 27 33 21 17 12 18 24 29 24 20 12 17 22 25 29 26 28 27 30 33 33 34 33 34 45 39 41 39 34 30 24 21 21 18 16 15 12
33 27 27 33 34 32 28 19 22 13 20 28 28 29 25 22 28 21 19 23 24 28 25 21 24 28 30 28 29 27 35 41 41 40 39 33 29 24 23 22 18 16 13 10
29 27 30 27 28 30 21 25 24 22 18 18 21 22 25 28 26 21 20 23 22 24 24 21 24 27 28 27 27 28 31 36 39 40 38 36 31 27 24 20 17 14 10 7
26 18 22 38 32 24 32 27 29 13 29 24 19 23 22 19 11 6 13 19 20 22 19 21 26 31 34 31 31 32 37 42 43 43 40 37 32 27 22 20 16 12 9 7
16 16 20 30 23 28 25 28 33 26 19 25 17 25 14 21 20 13 13 16 12 16 18 22 26 32 35 35 33 33 36 37 44 42 40 35 31 25 22 19 15 11 8 7
25 20 17 22 28 23 27 32 31 27 20 25 25 38 30 14 5 7 7 11 13 16 21 25 28 31 31 33 35 35 36 38 44 41 36 34 27 24 23 19 14 10 7 8
12 22 26 28 31 33 31 39 35 32 31 27 34 38 30 22 16 13 19 19 18 20 23 27 29 31 32 35 36 36 36 38 38 35 32 29 27 26 23 18 13 9 7 6
15 14 21 30 33 34 33 35 31 31 29 36 38 36 32 27 34 33 30 28 23 24 26 28 29 31 34 36 39 39 39 39 36 34 32 29 30 27 21 16 11 8 6 6
20 11 7 17 31 34 31 31 33 34 37 35 35 43 14 22 27 29 34 23 25 27 29 30 34 35 36 39 40 41 40 39 37 35 32 30 31 26 20 14 10 7 6 5
9 13 6 10 22 32 20 29 35 33 36 36 37 39 30 31 36 34 37 42 30 27 28 30 32 34 36 37 39 39 40 39 39 36 32 32 30 24 18 14 10 8 7 7
19 10 5 6 14 20 22 30 31 30 38 35 35 35 29 33 31 37 42 41 32 30 36 32 33 35 37 40 41 42 41 40 37 36 34 34 29 23 17 13 11 8 10 11
22 18 8 13 7 14 26 35 26 25 22 30 33 30 26 25 20 26 38 34 38 35 32 29 29 32 37 42 45 44 44 42 39 37 38 33 27 18 14 14 15 12 12 10
13 7 11 15 10 10 23 25 35 26 12 8 21 29 22 19 23 36 35 42 39 34 28 29 30 34 39 42 45 45 44 41 39 41 36 30 22 18 17 14 13 12 12 10
19 12 11 8 13 19 14 21 19 24 25 28 7 6 19 16 16 14 18 22 27 29 25 23 29 35 39 42 44 43 43 43 45 39 35 29 25 19 15 15 14 14 13 12
16 18 16 12 12 17 9 17 29 28 14 8 8 5 6 3 3 4 6 7 10 15 18 26 34 36 40 46 48 46 44 44 44 40 32 27 20 15 14 18 17 17 14 12
21 9 7 8 21 25 33 25 17 16 10 7 9 7 5 4 5 4 6 10 16 19 21 25 30 32 35 36 36 35 40 46 40 33 27 21 15 18 20 20 20 18 16 12
12 8 11 15 20 32 32 26 37 21 16 14 6 4 7 8 10 13 12 14 17 24 28 31 34 37 37 36 37 39 44 40 32 25 21 13 16 22 23 22 20 17 13 10
14 20 13 18 20 19 28 31 37 24 19 12 13 7 6 12 14 18 19 20 26 27 30 35 38 38 37 37 40 46 41 32 26 21 18 22 26 26 25 23 19 15 10 8
Wind_Direction
202 221 231 225 221 249 258 260 259 250 249 237 230 245 259 249 230 230 241 251 244 248 249 237 222 215 214 210 204 200 196 193 191 192 191 187 187 183 186 198 206 204 199 198
220 224 232 235 243 242 246 255 257 267 269 275 248 258 260 254 249 257 258 240 248 243 240 238 222 210 214 209 205 202 197 198 197 192 195 184 177 175 176 184 190 195 201 198
223 229 227 238 237 239 245 243 254 258 260 263 261 262 258 250 259 255 255 248 248 247 242 231 227 208 212 209 205 202 197 203 203 196 178 183 181 173 175 180 188 192 198 202
234 238 242 222 234 239 241 242 250 259 259 260 258 268 248 244 237 238 238 244 243 243 245 238 223 213 214 211 205 201 196 204 196 203 196 197 182 182 183 179 176 187 195 194
238 239 235 247 237 230 247 246 253 252 254 263 261 260 260 252 255 249 257 226 234 244 241 238 223 218 216 211 203 203 194 199 195 193 194 189 186 183 180 174 181 180 185 187
247 250 240 237 249 240 247 246 245 257 244 248 253 255 273 259 254 234 237 248 244 235 238 237 227 219 211 207 203 201 194 199 197 204 190 191 181 181 175 176 173 175 174 180
233 238 244 247 248 243 216 230 237 232 234 240 251 245 254 260 253 258 248 217 241 238 230 234 226 217 204 202 204 202 194 195 189 191 191 191 183 181 178 177 173 172 176 178
225 235 223 227 233 231 223 218 220 222 232 249 248 237 253 253 264 258 226 259 238 249 231 229 229 220 204 199 202 195 194 187 200 195 194 191 194 187 178 173 176 172 172 174
234 234 225 222 237 222 237 221 226 245 278 273 263 257 264 253 226 216 220 238 234 242 242 223 227 222 204 195 202 200 196 204 207 201 195 194 186 175 176 174 169 169 175 190
248 263 243 229 219 236 219 236 229 224 242 249 258 256 257 241 246 213 212 228 233 238 239 225 220 216 198 197 202 195 197 201 198 195 192 184 171 171 174 179 173 181 189 198
238 244 260 271 241 214 212 226 237 233 218 238 247 260 259 251 251 246 205 222 227 235 237 216 213 204 197 193 197 193 186 188 185 189 184 178 176 178 181 175 179 184 197 216
237 247 243 247 257 256 219 219 230 216 219 228 250 273 261 286 275 214 218 221 220 230 231 211 207 196 190 191 193 191 183 190 190 190 183 185 184 180 174 179 185 193 204 225
263 237 242 257 244 254 250 232 227 229 227 228 229 251 249 249 268 247 229 208 216 213 210 201 201 198 191 188 190 188 184 180 190 184 186 184 181 174 175 178 185 194 211 242
309 269 249 242 238 234 230 238 238 230 228 235 234 249 241 255 271 249 211 236 220 205 202 196 197 199 196 191 188 188 185 179 182 185 185 182 172 170 178 181 190 199 221 248
292 263 259 261 256 248 242 226 231 236 225 235 238 243 247 246 246 219 212 201 194 200 200 199 199 198 196 195 188 189 186 181 179 177 176 173 169 178 181 184 189 207 227 241
270 261 260 253 256 248 244 250 246 235 241 240 245 246 249 259 267 270 253 206 208 198 198 201 200 201 200 197 191 187 185 182 180 178 176 171 177 181 180 183 194 206 220 233
291 263 269 245 241 247 245 240 244 239 238 240 243 246 259 255 248 260 271 251 207 218 209 204 204 202 200 196 191 186 184 181 181 179 175 172 179 177 178 181 189 196 200 227
245 269 289 292 270 240 240 242 243 254 250 244 246 252 249 255 259 261 258 259 216 224 221 218 210 202 200 194 190 185 183 183 180 178 173 174 175 174 174 178 183 183 199 191
256 247 274 237 272 267 243 235 236 233 245 245 259 263 262 264 272 258 250 253 246 222 233 231 217 199 191 186 184 182 180 182 181 178 171 173 172 170 175 178 179 192 192 205
231 216 214 276 264 290 238 240 239 244 247 235 244 255 254 249 248 259 259 249 250 230 225 223 208 198 188 182 180 178 178 180 180 175 172 169 169 171 174 181 183 199 199 207
252 243 239 251 239 252 265 279 249 233 235 215 255 239 233 241 244 254 250 254 248 235 222 220 199 191 187 178 178 176 175 176 175 177 169 167 169 177 185 184 193 193 197 188
248 247 233 233 248 269 231 257 292 229 242 278 319 282 228 247 276 275 266 259 238 229 224 207 184 179 178 175 173 171 170 176 180 172 169 169 174 176 178 186 191 183 176 171
258 251 250 232 243 256 281 307 235 279 243 230 214 222 230 247 285 285 249 198 191 187 182 177 170 168 173 171 171 169 171 175 176 169 166 166 165 168 184 188 177 168 169 171
262 284 250 305 264 254 261 260 264 277 273 277 266 225 217 207 169 178 174 152 150 156 159 158 157 161 161 166 170 170 166 169 166 162 161 159 169 182 186 179 175 174 174 175
252 250 251 258 268 264 246 244 251 249 242 252 270 251 164 180 157 157 155 155 159 158 160 163 164 162 162 163 171 174 172 165 161 168 165 177 196 194 179 175 173 173 177 188
231 248 251 258 266 270 273 243 248 234 229 207 211 219 175 178 167 172 163 159 155 156 162 161 159 158 160 171 175 174 166 170 180 178 189 196 187 180 177 174 172 178 188 201